Saginaw, MI

1:42 PM EDT on July 20, 2017 (GMT -0400)
MBS International

Weather History for KMBS - April, 2013

Change the Weather History Date:

Thursday, April 4, 2013

  Actual Average Record
Temperature  
Mean Temperature 43 °F 41 °F  
Max Temperature 56 °F 51 °F 73 °F (1997)
Min Temperature 29 °F 32 °F 22 °F (2015)
Degree Days  
Heating Degree Days 22    
Month to date heating degree days 125  
Since 1 July heating degree days 5813  
Cooling Degree Days 0    
Month to date cooling degree days 0  
Year to date cooling degree days 0  
Moisture  
Dew Point 19 °F    
Average Humidity 43    
Maximum Humidity 60    
Minimum Humidity 26    
Precipitation  
Precipitation 0.00 in 0.09 in 0.80 in (2011)
Month to date precipitation T 0.34  
Year to date precipitation 5.85 5.72  
Snow  
Snow 0.00 in - - ()
Month to date snowfall T  
Since 1 July snowfall 43.4  
Snow Depth 0.00 in    
Sea Level Pressure  
Sea Level Pressure 30.12 in    
Wind  
Wind Speed 12 mph (SW)    
Max Wind Speed 25 mph    
Max Gust Speed 32 mph    
Visibility 10 miles    
Events      
T = Trace of Precipitation, MM = Missing Value Source: NWS Daily Summary

Daily Weather History Graph

Daily Weather History Graph

Search for Another Location

Airport or City:

Trip Planner

Search our weather history database for the weather conditions in past years. The results will help you decide how hot, cold, wet, or windy it might be!

Date:

Astronomy

Apr. 04, 2013 Rise Set
Actual Time 7:12 AM EDT 8:06 PM EDT
Civil Twilight 6:43 AM EDT 8:36 PM EDT
Nautical Twilight 6:08 AM EDT 9:10 PM EDT
Astronomical Twilight 5:32 AM EDT 9:47 PM EDT
Moon 3:48 AM EDT (4/4) 2:14 PM EDT (4/4)
Length of Visible Light 13h 52m
Length of Day
12h 54m
Waning Crescent, 34% of the Moon is Illuminated
Apr 4
Waning Crescent
Apr 10
New
Apr 18
First Quarter
Apr 25
Full
May 2
Last Quarter

Hourly Weather History & Observations

Time (EDT) Temp. Windchill Dew Point Humidity Pressure Visibility Wind Dir Wind Speed Gust Speed Precip Events Conditions
12:53 AM 30.9 °F 24.3 °F 16.0 °F 54% 30.33 in 10.0 mi South 6.9 mph - N/A   Clear
1:53 AM 30.9 °F 23.5 °F 16.0 °F 54% 30.33 in 10.0 mi SW 8.1 mph - N/A   Clear
2:53 AM 30.0 °F 22.4 °F 15.1 °F 54% 30.31 in 10.0 mi South 8.1 mph - N/A   Clear
3:53 AM 30.0 °F 22.4 °F 15.1 °F 54% 30.28 in 10.0 mi SSW 8.1 mph - N/A   Clear
4:53 AM 30.0 °F 21.7 °F 15.1 °F 54% 30.27 in 10.0 mi SSW 9.2 mph - N/A   Clear
5:53 AM 30.0 °F 21.7 °F 16.0 °F 56% 30.26 in 10.0 mi SSW 9.2 mph - N/A   Clear
6:53 AM 30.0 °F 21.7 °F 16.0 °F 56% 30.25 in 10.0 mi SSW 9.2 mph - N/A   Clear
7:53 AM 30.9 °F 22.8 °F 16.0 °F 54% 30.23 in 10.0 mi SSW 9.2 mph - N/A   Clear
8:53 AM 34.0 °F 25.5 °F 16.0 °F 48% 30.22 in 10.0 mi SSW 11.5 mph - N/A   Clear
9:53 AM 37.9 °F 28.5 °F 16.0 °F 41% 30.19 in 10.0 mi SW 17.3 mph - N/A   Clear
10:53 AM 43.0 °F 35.4 °F 18.0 °F 37% 30.15 in 10.0 mi SW 16.1 mph - N/A   Clear
11:53 AM 46.0 °F 38.0 °F 19.0 °F 34% 30.12 in 10.0 mi SW 21.9 mph - N/A   Clear
12:53 PM 48.9 °F - 21.0 °F 33% 30.09 in 10.0 mi WSW 19.6 mph 29.9 mph N/A   Clear
1:53 PM 51.1 °F - 21.9 °F 32% 30.06 in 10.0 mi SW 20.7 mph 26.5 mph N/A   Clear
2:53 PM 53.1 °F - 21.0 °F 29% 30.01 in 10.0 mi SW 17.3 mph 26.5 mph N/A   Clear
3:53 PM 55.0 °F - 21.9 °F 28% 29.98 in 10.0 mi WSW 21.9 mph 28.8 mph N/A   Clear
4:53 PM 55.0 °F - 21.0 °F 27% 29.95 in 10.0 mi WSW 12.7 mph 27.6 mph N/A   Clear
5:53 PM 54.0 °F - 19.9 °F 26% 29.94 in 10.0 mi WSW 15.0 mph - N/A   Clear
6:53 PM 52.0 °F - 19.9 °F 28% 29.94 in 10.0 mi SW 16.1 mph - N/A   Mostly Cloudy
7:53 PM 50.0 °F - 23.0 °F 35% 29.96 in 10.0 mi WSW 10.4 mph - N/A   Overcast
9:53 PM 46.9 °F - 25.0 °F 42% 29.98 in 10.0 mi West 5.8 mph - N/A   Overcast
10:53 PM 45.0 °F 42.6 °F 27.0 °F 49% 29.98 in 10.0 mi NW 4.6 mph - N/A   Mostly Cloudy
11:53 PM 41.0 °F 37.1 °F 28.0 °F 60% 29.97 in 10.0 mi North 5.8 mph - N/A   Scattered Clouds